Flag for U.S.A. Weather past 2 weeks in Atlanta, Georgia, U.S.A.

Now
55 °F

Clear.


Feels Like: 55 °F
Forecast: 56 / 81 °F
Wind: No wind

Location: Fulton County Airport-Brown Field

Current Time: May 23, 2015 at 4:47:56 AM

Latest Report: May 23, 2015 at 3:53 AM


Visibility: 10 mi

Pressure: 30.25 "Hg

Humidity: 90%

Dew point: 52 °F

Location of AtlantaLocation

Historic Weather in Atlanta — Graph

°F

Atlanta temperature yesterday

Maximum temperature yesterday: 78 °F (at 5:53 PM)
Minimum temperature yesterday: 51 °F (at 5:53 AM)
Average temperature yesterday: 64 °F

Past Weeks' High & Low Weather Summary

 TemperatureHumidityPressure
High89 °F (May 11, 4:53 PM)96% (May 18, 12:53 AM)30.27 "Hg (May 18, 12:53 AM)
Low51 °F (May 22, 5:53 AM)26% (May 13, 3:53 PM)29.88 "Hg (May 20, 7:53 PM)
Average73 °F66%30.11 "Hg
* Reported May 8 3:53 AM — May 23 3:53 AM, Atlanta, Weather by CustomWeather, © 2015

Note: Actual official high and low records may vary slightly from our data, if they occured in-between our weather recording intervals... More about our weather records

Advertising

Atlanta weather history for previous 24 hours

 ConditionsComfort  
Time TempWeatherWind HumidityBarometerVisibility
3:53 AM
Sat, May 23
55 °FClear.No wind90%30.25 "Hg10 mi
2:53 AM56 °FClear.No wind87%30.24 "Hg10 mi
1:53 AM56 °FClear.No wind90%30.24 "Hg10 mi
12:53 AM57 °FClear.No wind90%30.25 "Hg10 mi
11:53 PM
Fri, May 22
60 °FClear.No wind80%30.24 "Hg10 mi
10:53 PM63 °FClear.No wind73%30.24 "Hg10 mi
9:53 PM66 °FClear.No wind65%30.22 "Hg10 mi
8:53 PM70 °FSunny.No wind55%30.20 "Hg10 mi
7:53 PM76 °FSunny.3 mph43%30.18 "Hg10 mi
6:53 PM78 °FSunny.No wind36%30.17 "Hg10 mi
5:53 PM78 °FSunny.No wind36%30.18 "Hg10 mi
4:53 PM77 °FSunny.No wind37%30.17 "Hg10 mi
3:53 PM76 °FSunny.6 mph39%30.17 "Hg10 mi
2:53 PM75 °FSunny.8 mph42%30.18 "Hg10 mi
1:53 PM73 °FSunny.5 mph43%30.19 "Hg10 mi
12:53 PM71 °FSunny.3 mph45%30.20 "Hg10 mi
11:53 AM68 °FSunny.5 mph49%30.21 "Hg10 mi
10:53 AM64 °FSunny.3 mph54%30.21 "Hg10 mi
9:53 AM62 °FSunny.5 mph58%30.21 "Hg10 mi
8:53 AM58 °FSunny.5 mph70%30.18 "Hg10 mi
7:53 AM53 °FSunny.7 mph80%30.15 "Hg10 mi
6:53 AM51 °FClear.No wind83%30.13 "Hg10 mi
5:53 AM51 °FClear.5 mph83%30.10 "Hg10 mi
4:53 AM52 °FClear.5 mph80%30.08 "Hg10 mi
Weather by CustomWeather, © 2015

See weather overviewHow to use our weather pages